Showing default

SIRION PATHFINDER-2, 43759

Orbit data source: Space-Track

SIRION PATHFINDER-2, 43759 is an American payload satellite in SSO that was launched on Mon, 03 Dec 2018 UTC via an FALCON 9 launch vehicle from the Air Force Western Test Range (AFWTR). Payload-class satellites include a variety of spacecraft equipped with specific instruments for various scientific and technological missions. These include communications satellites like Starlink; space stations such as the ISS; scientific satellites like the Hubble; Earth observation satellites from companies like Planet Labs, Umbra, and HawkEye 360; GPS; miniature CubeSats for education and research; and military/defense satellites.

Loading next visibility...
Identifier
43759, 2018-099B
Orbit
SSO
Country
Flag of USUS
Related business
Manufacturer
Astro Digital
Mission
Operational Commercial Communications
Bus & Motor
CUBESAT 6U, Unknown motor
Mass
10 kg wet, 10 kg dry
Launch date (UTC)
2018-12-03 (7 years ago)
Launch vehicle
FALCON 9
Launch site
Air Force Western Test Range (AFWTR)
Object type
Payload
Rocket body
Debris
Shape & HBR
Box + 2 Pan, 0.7 m
Radar Cross Section
0.143 m², Small (<0.1 m²)

Expand to show TLE details & history
Last TLE update: 6 hours ago

TLE from 6 hours ago
0 SIRION PATHFINDER-2
1 43759U 18099B   26125.09937256  .00005007  00000-0  27778-3 0  9998
2 43759  97.4282 175.1861 0010476  90.7998 269.4434 15.14155437406100
Epoch: 2026-05-05T02:23Z
TLE epoch observation values (Epoch: 2026-05-05T02:23:05.789Z)
Latitude
-0.00003°
Longitude
-83.5671°
Altitude
526.703 km
Speed
7.6 km/s
True Right ascension
11h 40m 44s
True Declination
0° 00' 00"
Sunlit
Object was in full shadow at epoch
Visualization orbit readout
Latitude
Unknown
Longitude
Unknown
Altitude
Unknown
Speed
Unknown
Apparent Right ascension
Unknown
Apparent Declination
Unknown
Sunlit
N/A
Visualization observer readout
Local Sidereal Time
16:37:27
Azimuth
Unknown
Elevation
Unknown
Doppler factor
Unknown
Orbital elements
Apogee altitude
527.745 km
Perigee altitude
513.291 km
Semi-major axis
6,898.655 km
Eccentricity
0.00105
Inclination
97.4282°
RAAN
175.1861°
Arg. of periapsis
90.7998°
True anomaly
269.32336°
Mean anomaly
269.4434°
Eccentric anomaly
269.38338°
Mean motion
3.78788 °/min
Orbital period
95.04 mins
BSTAR
0.00027778
Loading maneuver chart data...
Computing Atmospheric mass density...
Loading historical data...
Loading historical data...
Loading historical data...
Loading historical data...
Loading historical data...
Loading historical data...
Loading historical data...

Documentation

Showing up to 5 results
|